Location: Navajo
(48.7922°N, 105.0603°W)
Time: 22:56:04
(UTC+00:00)

QB50P2 - Pass Details

Date: 28 June 2022
Orbit: 590 x 605 km, 97.9° (Epoch: 16 August)

Event Time Altitude Azimuth Distance (km) Brightness Sun altitude
Rises 09:11:41 0° 7° (N) 2,858 ? -12.5°
Reaches altitude 10° 09:13:58 10° 359° (N) 1,953 ? -12.3°
Maximum altitude 09:17:53 38° 292° (WNW) 932 ? -11.9°
Enters shadow 09:20:52 16° 230° (SW) 1,604 ? -11.7°
